#timestamp,LO_Frequency,Hit,StdDev 
1595908915.2,286047000.7,P
1595908935.0,286046998.1,P
1595908936.0,286046998.1,N
1595908955.8,286046998.1,N
1595908975.6,286047000.5,N
1595908995.5,286047000.6,N
1595909015.3,286047000.8,N
1595909035.1,286047000.4,N
1595909055.9,286047001.2,N
1595909075.7,286046996.9,N
1595909095.6,286046999.1,N
1595909115.4,286046998.7,N
1595909135.2,286046998.1,N
1595909155.1,286046998.2,N
1595909156.0,286046998.2,N
1595909175.8,286046998.6,N
1595909195.6,286047000.8,N
1595909215.5,286047001.2,N
1595909235.3,286047001.2,N
1595909255.2,286047000.5,N
1595909275.9,286046999.7,N
1595909295.7,286047000.8,N
1595909315.6,286046998.5,N
1595909335.4,286046999.0,N
1595909355.2,286046999.0,N
1595909375.1,286047001.2,N
1595909376.0,286047001.2,N
1595909395.8,286046998.2,N
1595909415.7,286046998.9,N
1595909435.5,286047000.7,N
1595909455.3,286047000.7,N
1595909475.2,286047000.9,N
1595909495.0,286047000.8,N
1595909495.9,286047000.8,N
1595909515.7,286047000.0,N
1595909535.6,286046998.2,N
1595909555.4,286047000.9,N
1595909575.3,286047000.8,N
1595909595.1,286047002.7,N
1595909615.8,286047000.2,N
1595909635.7,286047000.7,N
1595909655.5,286047002.2,N
1595909675.4,286047000.5,N
1595909695.2,286047000.0,N
1595909715.0,286047000.6,N
1595909715.9,286047000.6,N
1595909735.8,286047001.0,N
1595909755.6,286046998.6,N
1595909775.4,286047001.2,N
1595909795.3,286047001.2,N
1595909815.1,286046998.1,N
1595909835.9,286046998.1,N
1595909855.7,286046998.5,N
1595909875.5,286046998.5,N
1595909895.4,286047000.8,N
1595909915.2,286047000.4,N
1595909935.0,286046998.6,N
1595909935.9,286046998.6,N
1595909955.8,286047001.2,N
1595909975.6,286047001.0,N
1595909995.5,286046998.5,N
1595910015.3,286046998.7,N
1595910035.1,286046998.7,N
1595910055.9,286046998.9,N
1595910075.7,286046998.7,N
1595910095.5,286046996.8,N
1595910115.4,286046996.7,N
1595910135.2,286046998.5,N
1595910155.1,286046998.9,N
1595910156.0,286046998.9,N
1595910175.8,286046998.2,N
1595910195.6,286046999.1,N
1595910215.5,286046998.2,N
1595910235.3,286047001.2,N
1595910255.1,286046999.0,N
1595910275.9,286046999.6,N
1595910295.7,286046997.2,N
1595910315.6,286046997.2,N
1595910335.4,286046998.0,N
1595910355.2,286046997.1,N
1595910375.1,286046997.8,N
1595910376.0,286046997.8,N
1595910395.8,286046997.7,N
1595910415.6,286046996.7,N
1595910435.5,286046997.1,N
1595910455.3,286046997.1,N
1595910475.2,286046997.1,N
1595910495.9,286046996.8,N
1595910515.7,286046997.7,N
1595910535.6,286046996.9,N
1595910555.4,286046997.7,N
1595910575.2,286046997.6,N
1595910595.1,286046997.5,N
1595910596.0,286046997.5,N
1595910615.8,286046997.2,N
1595910635.7,286046997.2,N
1595910655.5,286046997.7,N
1595910675.3,286046997.8,N
1595910695.2,286046996.1,Y
1595910715.0,286046997.1,P
1595910715.9,286046997.1,P
1595910735.8,286046996.9,P
1595910755.6,286046996.7,Y
1595910775.4,286047000.8,P
1595910795.3,286047000.5,N
1595910815.1,286046998.5,N
1595910835.8,286047000.5,N
1595910855.7,286047000.4,N
1595910875.5,286047000.1,N
1595910895.4,286046999.9,N
1595910915.2,286047000.3,N
1595910935.0,286047000.7,N
1595910935.9,286047000.7,N
1595910955.8,286046999.9,N
1595910975.6,286047000.7,N
1595910995.5,286047000.8,N
1595911015.3,286046998.4,N
1595911035.1,286046998.1,N
1595911055.9,286046998.3,N
1595911075.7,286047000.9,N
1595911095.5,286047000.7,N
1595911115.4,286047000.8,N
1595911135.2,286047000.7,N
1595911155.0,286047001.0,N
1595911156.0,286047001.0,N
1595911175.8,286047001.1,N
1595911195.6,286046998.6,N
1595911215.5,286046998.8,N
1595911235.3,286046998.8,N
1595911255.1,286046999.3,N
1595911275.9,286046996.6,Y
1595911295.7,286046996.7,P
1595911315.6,286046997.1,N
1595911335.4,286046997.7,N
1595911355.2,286046997.4,N
1595911375.1,286046997.5,N
1595911376.0,286046997.5,N
1595911395.8,286046994.9,Y
1595911415.7,286046998.4,P
1595911435.5,286046999.3,N
1595911455.3,286046997.2,P
1595911475.2,286046999.4,N
1595911495.9,286046998.8,N
1595911515.7,286046997.3,Y
1595911535.6,286046998.2,P
1595911555.4,286046999.1,P
1595911575.3,286046999.0,N
1595911595.1,286046999.4,N
1595911596.0,286046999.4,N
1595911615.8,286046998.6,Y
1595911635